Location: Huntsville
(41.2590°N, 111.7678°W)
Time: 20:08:39
(UTC+00:00)

Explorer 7 - Pass Details

Date: 16 June 2021
Orbit: 484 x 676 km, 50.3° (Epoch: 30 July)

Event Time Altitude Azimuth Distance (km) Brightness Sun altitude
Rises 07:38:12 0° 274° (W) 3,005 10.6 -25.3°
Reaches altitude 10° 07:40:50 10° 285° (WNW) 2,075 9.9 -25.3°
Maximum altitude 07:45:04 31° 347° (NNW) 1,139 9.0 -25.3°
Drops below altitude 10° 07:49:10 10° 50° (NE) 1,991 10.2 -25.2°
Sets 07:51:39 0° 61° (ENE) 2,863 11.0 -25.1°
